Location: Marcé
(47.5801°N, 0.3280°W)
Time: 22:59:55
(UTC+01:00)

Transit 2A - Pass Details

Date: 07 December 2021
Orbit: 591 x 967 km, 66.7° (Epoch: 23 January)

Event Time Altitude Azimuth Distance (km) Brightness Sun altitude
Rises 10:03:09 0° 319° (NW) 3,664 8.8 10.1°
Reaches altitude 10° 10:06:02 10° 309° (NW) 2,709 8.3 10.4°
Maximum altitude 10:11:27 30° 251° (WSW) 1,621 7.6 11.0°
Drops below altitude 10° 10:16:38 10° 192° (SSW) 2,585 9.4 11.5°
Sets 10:19:20 0° 182° (S) 3,472 10.3 11.8°
